Theta_e
322 322 321 320 321 321 321 321 321 321 322 322 320 320 324 324 324 332 341 339 336 338 338 336 336 336 335 335 335 335 334 335 335 336 336 336 335 335 335 335 335 336 337 338 338 339 340 341 343 347 350 351 352 352 352 353 353 353 352 352 352 352 351 350 349 350 352 352 352 352 351 351 350 348 347 346 344 343 343 345 345 344 342 343 345 346 346
320 321 320 320 320 319 320 321 320 321 321 320 321 322 323 326 330 336 340 339 341 341 338 336 335 335 334 334 334 334 334 334 334 335 335 335 335 335 334 334 334 334 335 336 336 337 338 338 340 344 348 351 351 350 351 352 352 353 353 352 352 352 352 352 351 351 352 352 352 353 352 352 352 350 347 345 345 344 343 343 344 344 343 341 343 345 346
317 319 319 319 320 319 319 320 320 320 320 319 322 322 323 327 332 335 337 340 341 340 338 336 335 334 334 334 334 334 333 333 333 333 334 334 334 334 334 334 334 333 334 334 334 334 336 336 337 340 344 347 347 347 349 350 351 352 353 353 353 352 352 352 351 352 353 352 353 352 352 351 352 352 351 349 346 344 344 344 344 345 344 342 342 342 345
315 317 318 318 318 318 317 318 319 319 318 319 320 321 322 324 327 332 336 337 336 336 336 335 335 335 335 334 334 333 333 332 332 332 332 332 332 332 332 332 333 333 333 333 333 333 332 335 337 337 340 343 345 345 347 348 350 351 352 353 353 352 353 353 352 353 352 352 352 352 353 351 349 351 353 352 349 347 346 345 345 345 345 344 342 341 342
313 316 317 316 316 316 314 316 319 319 319 319 320 321 323 326 325 329 334 335 334 335 335 333 334 335 334 334 333 332 332 332 331 330 330 330 330 330 330 330 331 331 331 332 332 332 331 333 334 335 336 340 342 343 344 346 347 349 351 352 352 352 352 353 353 352 352 352 352 352 354 353 350 349 350 349 349 349 349 348 347 346 346 346 345 343 341
313 316 317 315 314 313 314 318 319 319 319 319 320 321 323 327 328 329 332 334 333 333 333 332 333 333 332 332 332 332 332 331 330 329 329 329 329 329 329 328 328 329 329 330 331 331 330 331 333 332 332 336 339 340 341 344 346 347 349 350 351 352 352 352 352 352 351 351 352 352 353 353 351 350 348 347 347 348 348 349 349 349 349 348 348 346 343
314 316 317 315 314 314 317 320 320 320 320 319 323 326 325 327 329 329 331 332 332 332 332 332 332 331 330 330 330 330 330 330 329 328 327 327 326 327 328 327 326 327 327 327 328 329 328 328 331 331 329 333 337 337 337 340 341 341 344 347 348 349 351 351 351 351 350 351 351 351 352 351 351 351 350 349 350 350 348 348 349 350 351 351 351 351 349
316 316 315 316 317 318 319 320 318 318 320 319 322 325 326 326 328 329 330 330 331 331 331 330 331 330 329 329 328 328 328 329 328 327 326 326 325 325 326 325 325 325 326 326 326 327 327 326 328 330 329 329 334 336 337 338 336 332 333 340 344 346 348 350 350 350 351 350 351 351 351 351 351 352 352 351 352 353 352 352 351 351 351 351 353 354 354
315 315 315 317 319 319 319 320 319 320 321 320 321 323 325 325 326 329 330 329 329 330 329 328 329 328 328 328 327 327 327 327 327 326 325 324 324 324 324 324 323 323 324 325 325 325 325 324 325 328 328 327 329 334 337 338 335 329 324 328 334 338 342 346 348 349 351 351 352 352 352 352 352 352 353 353 353 354 353 353 353 352 350 350 352 353 353
316 314 315 317 317 316 319 321 322 322 321 320 322 323 323 324 324 327 329 328 328 328 327 326 327 326 328 328 326 325 325 324 325 324 323 323 322 322 323 323 322 321 322 324 323 323 324 324 323 325 327 326 325 327 333 336 336 332 325 322 325 326 330 338 342 345 348 349 351 352 352 352 352 353 353 354 354 354 352 352 352 351 350 350 351 352 351
318 315 315 315 318 321 323 321 321 321 318 318 319 317 319 324 325 325 327 327 327 326 325 326 326 325 327 328 326 324 323 323 323 322 322 322 322 321 322 321 320 321 322 322 322 322 322 322 323 323 325 326 321 319 324 330 333 333 327 321 322 322 323 328 334 340 345 347 348 351 352 352 353 354 354 354 354 353 352 352 352 352 351 350 350 351 350
318 317 315 316 321 325 324 321 319 319 318 317 316 313 317 324 325 324 325 326 324 324 324 324 324 325 326 327 325 324 323 322 321 321 321 321 321 321 320 320 319 320 322 321 320 321 321 320 322 322 323 326 324 318 319 322 326 328 323 317 319 322 322 323 325 330 338 343 345 347 348 350 352 353 354 354 354 354 353 353 354 354 354 352 351 350 350
316 317 315 317 323 325 323 320 320 318 317 316 316 317 321 325 324 323 324 323 322 323 323 323 323 324 325 324 323 322 322 321 320 321 320 320 320 320 319 319 319 319 320 320 319 320 320 320 321 321 322 326 323 317 318 322 322 322 318 314 316 319 321 323 323 323 328 334 340 344 344 346 349 350 351 352 352 353 354 354 354 356 355 354 353 352 351
316 316 314 317 323 325 322 320 319 316 316 318 320 323 325 324 322 323 322 322 321 321 321 321 321 322 322 321 321 321 321 320 320 319 320 319 319 319 318 319 319 319 319 320 319 319 320 319 320 321 323 324 321 316 318 323 323 320 315 313 314 315 317 321 322 322 323 326 331 337 340 343 346 347 348 349 350 350 351 352 353 355 355 355 354 354 353
316 315 314 317 322 324 322 320 319 318 319 322 324 325 324 322 322 322 321 320 320 320 320 320 320 320 321 320 320 319 319 319 319 319 320 320 319 319 318 318 318 318 319 319 318 318 318 319 321 322 321 320 319 319 322 324 322 319 315 314 316 316 316 316 316 318 322 323 324 328 331 336 342 342 341 344 347 349 350 350 352 354 354 355 355 355 354
315 315 316 318 321 323 321 320 321 322 322 323 324 323 322 321 321 321 320 320 319 319 319 319 319 319 320 319 319 319 319 319 319 319 319 320 319 319 319 318 319 319 318 318 318 317 318 319 321 320 318 317 318 321 325 324 321 318 316 318 322 323 321 317 314 315 319 323 326 328 329 331 334 335 335 338 341 345 348 350 350 352 354 354 354 355 355
318 318 319 321 322 322 319 319 321 323 322 321 322 322 322 321 320 320 320 319 319 319 318 318 318 318 318 318 318 318 318 318 319 319 319 319 319 319 319 320 320 319 318 318 318 318 319 320 320 320 320 319 320 321 320 318 318 319 320 324 327 327 322 316 314 315 315 318 328 335 335 332 331 330 332 336 338 339 343 347 348 349 351 352 353 354 355
319 319 320 321 322 322 319 318 319 320 319 320 320 319 319 319 318 318 318 318 319 319 318 318 318 318 317 318 318 318 318 318 318 318 318 318 318 319 319 319 318 317 316 317 318 318 318 319 319 320 320 320 321 320 317 316 319 322 323 323 322 321 317 314 315 316 314 313 322 331 332 328 325 325 328 334 338 337 337 339 341 342 343 345 348 350 352
317 318 319 321 321 321 320 319 318 318 318 318 319 318 317 317 317 317 318 318 318 318 318 318 318 318 317 317 317 317 317 317 317 317 317 317 317 317 317 317 317 317 317 317 317 317 317 317 318 319 319 319 321 321 320 319 319 317 315 314 313 314 316 317 315 314 313 313 314 319 325 329 332 332 331 332 333 333 331 333 340 345 346 346 346 347 349
317 317 318 319 319 319 319 319 318 319 318 318 318 318 317 318 317 317 317 317 316 316 317 317 317 317 316 316 316 316 316 316 316 316 316 316 316 316 316 316 316 316 317 317 317 317 317 317 319 319 319 318 319 319 318 316 314 312 311 312 312 311 313 316 316 314 316 317 317 321 331 337 337 335 335 334 334 333 331 331 336 340 343 344 345 347 348
318 318 318 318 319 319 319 319 318 318 318 318 318 318 317 317 317 317 316 317 316 316 316 316 316 316 315 315 315 315 315 315 315 315 315 315 315 315 315 315 315 315 316 316 317 317 317 318 319 319 319 319 319 320 319 317 314 312 313 314 315 314 314 318 322 323 323 324 326 330 334 334 332 332 335 337 337 335 333 331 331 331 332 331 332 334 337
319 320 320 320 320 320 320 320 318 318 318 317 317 317 317 317 316 316 316 316 315 315 315 315 314 314 314 314 314 314 314 314 314 314 314 314 314 314 314 314 314 314 315 315 316 316 317 317 318 318 318 319 320 320 319 319 317 316 315 316 318 321 323 325 327 327 327 327 329 330 330 330 330 329 328 327 326 324 322 324 325 326 327 325 324 323 324
321 321 320 319 320 320 320 320 319 319 318 318 317 317 317 317 316 316 316 316 315 315 315 314 313 313 313 313 313 314 313 313 313 313 313 313 313 313 313 313 313 314 314 315 316 316 317 317 317 318 318 318 318 319 319 319 319 318 317 315 316 319 323 326 328 328 328 327 327 326 327 328 328 326 323 321 320 319 320 322 323 324 324 324 324 324 323
322 321 320 320 320 320 320 320 320 320 319 318 317 316 316 316 316 316 316 316 315 315 315 314 313 313 313 313 313 313 313 312 313 313 312 312 312 312 312 312 313 313 314 315 315 315 316 316 316 317 317 317 317 318 318 318 318 318 317 316 314 314 317 321 324 326 327 328 328 327 327 328 329 328 327 326 324 324 325 327 327 325 324 323 323 324 324
321 321 321 320 320 320 320 320 320 320 320 319 318 317 316 316 316 316 316 316 316 315 315 314 314 314 313 312 312 312 312 312 312 312 311 312 312 311 312 312 313 313 314 314 314 314 315 315 315 316 316 316 316 316 317 317 317 318 318 318 318 316 316 318 320 322 324 325 327 328 328 329 329 329 329 330 330 328 325 324 323 324 325 325 325 324 324
320 320 319 319 318 318 319 318 318 319 319 319 318 318 317 316 316 316 316 316 316 316 315 315 314 314 314 313 312 312 311 311 311 311 311 311 311 311 312 312 312 313 313 313 314 314 314 315 315 315 316 316 316 316 316 316 316 317 317 317 318 318 318 318 319 321 323 323 323 325 326 326 326 327 328 329 331 330 326 324 324 325 325 324 323 323 324
319 319 319 319 319 318 318 318 318 318 319 318 318 318 317 317 316 317 316 316 316 316 315 315 314 314 313 313 312 312 311 311 311 311 311 311 311 312 312 312 312 313 313 314 314 314 315 315 316 316 316 316 316 316 316 316 316 316 316 316 317 317 318 318 319 320 323 324 324 324 324 324 325 326 327 328 329 330 330 329 328 325 321 320 324 327 328
318 318 318 319 319 318 318 318 318 318 318 318 318 318 317 317 317 317 317 317 316 316 315 315 314 313 313 312 312 311 311 311 311 311 311 311 312 312 312 312 312 313 313 314 314 314 315 316 315 316 317 317 316 315 316 316 316 315 316 316 316 316 317 318 318 320 322 324 324 324 324 325 325 326 327 328 329 329 329 327 325 324 322 323 326 327 327
318 318 317 317 318 318 318 317 317 317 318 319 318 317 317 317 317 317 317 317 316 316 315 314 313 312 312 312 311 311 311 310 311 311 311 311 312 312 312 312 312 313 313 314 314 314 314 314 314 315 316 316 316 316 316 316 316 316 315 316 316 316 316 316 317 318 320 322 324 324 324 324 325 325 326 326 326 326 326 325 324 326 328 329 328 326 326
318 317 317 317 318 318 318 318 317 316 317 318 318 317 317 317 317 317 317 317 316 315 315 314 313 312 312 311 311 310 310 311 311 311 311 311 311 312 312 312 312 313 313 314 314 314 313 313 313 314 315 316 316 317 317 316 316 316 315 315 315 315 315 316 316 316 317 319 322 324 325 325 325 325 325 325 325 326 326 327 327 329 330 330 330 330 331
317 317 318 318 318 318 318 318 316 315 315 317 317 317 316 316 316 317 317 316 316 315 314 314 312 312 311 311 311 311 311 311 311 311 311 311 311 311 312 312 312 313 313 313 313 313 312 312 313 313 314 314 315 316 316 316 316 316 316 316 315 315 315 315 315 315 316 317 319 321 323 325 325 325 325 325 325 326 326 327 328 329 329 330 331 332 332
317 317 317 318 318 318 317 317 316 315 316 316 317 317 316 316 315 315 315 315 315 314 313 312 311 311 311 311 311 311 311 311 310 310 310 310 311 311 312 312 312 312 312 312 312 312 312 312 312 312 312 313 314 315 315 316 316 316 316 316 316 316 316 316 316 316 317 318 319 320 322 323 324 324 323 323 323 324 324 324 325 327 328 329 329 330 330
317 316 316 316 316 317 317 316 316 317 317 317 317 316 315 315 315 314 313 313 313 312 311 311 311 311 311 311 310 310 310 310 310 310 310 310 311 311 311 311 311 311 311 311 311 311 311 311 311 311 311 311 312 312 313 314 315 316 316 316 316 316 317 317 317 317 318 319 320 321 321 322 323 323 323 323 323 323 324 325 325 326 327 327 327 328 328
315 315 314 315 315 316 316 316 316 317 317 316 315 315 314 314 313 312 311 310 310 310 310 310 310 310 310 310 309 309 309 309 309 309 309 309 309 309 310 310 309 309 309 310 310 310 310 310 310 310 309 309 310 310 311 312 313 314 315 315 316 317 317 317 317 318 318 319 319 320 320 321 322 323 323 323 323 324 324 325 325 325 326 326 326 326 327
314 313 313 313 314 315 315 316 316 316 316 315 314 314 313 312 311 310 309 309 309 309 309 309 310 310 309 309 309 309 309 309 309 308 308 308 308 308 308 308 308 308 308 309 309 309 309 309 309 309 308 308 309 309 310 311 311 312 313 313 314 315 316 316 317 317 318 318 319 320 321 322 323 323 323 323 323 323 323 324 324 325 325 325 325 325 325
313 312 312 313 313 313 314 315 315 315 315 314 313 312 312 311 310 309 309 309 309 309 309 309 309 309 308 308 308 308 308 308 307 307 307 307 307 306 306 306 307 308 308 308 308 308 308 308 307 307 307 307 308 308 309 310 310 311 311 312 312 313 314 315 315 316 317 317 319 320 321 322 322 322 321 321 322 322 322 323 323 324 323 323 324 324 324
313 312 312 313 314 314 314 313 313 313 313 313 312 311 310 310 309 309 309 309 309 309 309 308 308 308 308 308 307 307 307 307 307 306 306 306 305 305 305 306 306 307 307 307 307 307 306 306 306 306 306 306 307 307 308 309 309 310 310 311 312 312 313 314 314 315 315 316 318 319 321 321 322 321 321 321 321 322 322 322 322 321 321 322 323 323 323
312 313 312 313 313 314 313 312 312 312 312 312 311 311 310 310 310 309 309 309 309 308 308 307 307 307 307 307 306 306 306 306 306 305 305 305 305 305 305 305 306 306 306 306 305 305 305 305 305 305 305 305 306 306 307 307 308 309 309 309 310 311 312 313 314 314 315 316 316 318 318 319 320 321 321 320 320 321 321 322 322 321 322 322 322 322 322
311 313 313 312 312 313 312 311 311 311 311 311 311 311 310 310 310 309 309 309 308 307 306 306 306 306 306 306 306 305 305 305 304 304 304 304 304 304 304 305 305 305 304 304 304 304 304 304 304 304 305 305 305 305 305 306 307 307 307 307 308 309 310 311 312 313 315 315 316 316 317 317 318 319 320 320 319 319 320 321 321 321 321 321 321 321 320
310 312 312 311 311 311 311 310 310 310 310 310 311 310 310 310 309 309 308 308 307 306 306 306 305 305 305 305 305 304 304 304 303 303 303 303 303 304 304 304 304 304 303 303 303 303 303 303 303 304 304 304 304 304 304 304 305 305 305 305 306 307 308 309 310 312 313 314 314 315 316 316 317 318 319 319 319 319 320 320 321 320 320 320 320 319 318
309 311 312 312 311 310 310 310 310 310 310 310 310 310 310 309 308 308 307 307 306 305 305 305 304 304 304 304 304 303 303 303 303 302 302 303 303 303 303 303 303 303 302 302 302 302 302 302 303 303 303 302 302 302 302 302 302 303 304 305 306 307 308 309 310 310 311 312 313 314 315 316 317 317 318 318 318 319 319 319 319 319 318 318 317 316 315
308 310 311 312 311 310 310 311 311 311 311 310 310 309 309 308 308 307 306 306 305 305 305 304 304 303 303 303 303 303 303 303 302 302 302 302 302 302 302 302 302 302 302 302 302 302 302 302 301 301 301 301 300 300 300 301 301 302 304 305 305 306 307 308 309 310 311 311 312 312 313 314 315 316 316 316 317 317 318 317 317 317 316 316 315 314 313
308 308 310 310 310 310 310 311 310 311 311 310 309 309 308 308 307 306 306 305 305 305 305 304 304 303 303 303 303 303 303 303 302 302 302 302 302 302 302 301 301 301 301 301 301 301 301 300 300 299 299 299 299 299 300 300 301 302 303 304 304 305 306 307 308 308 309 310 311 311 312 313 313 314 314 315 315 316 316 316 315 315 315 315 315 314 313
308 308 308 309 309 309 309 310 309 309 310 310 309 308 307 307 306 306 306 305 305 305 305 304 304 304 303 303 303 303 303 303 302 302 302 302 302 302 301 300 300 301 300 299 300 300 300 299 299 298 298 298 298 299 300 300 301 301 302 302 302 303 304 305 306 307 308 309 310 310 311 311 312 313 313 313 314 314 314 314 313 313 313 313 313 312 311
307 307 308 309 308 308 309 310 309 309 309 309 308 307 307 307 306 306 305 305 305 305 305 305 304 304 304 303 303 303 303 303 303 302 302 302 302 302 301 301 301 300 299 299 299 300 299 298 298 298 297 297 298 298 299 299 299 300 300 301 301 301 302 303 304 305 306 307 308 309 309 310 311 311 311 311 311 311 312 311 311 311 310 310 309 309 308
307 307 307 308 308 308 309 309 309 309 309 308 307 307 306 306 306 305 305 305 305 305 305 305 304 304 304 304 303 303 303 303 303 302 302 302 302 301 301 301 300 300 299 299 299 299 298 298 298 297 297 297 298 298 298 298 298 299 299 299 299 300 301 302 303 304 305 306 306 307 307 308 308 308 308 309 309 309 309 308 308 308 307 307 306 306 305
307 307 307 307 308 308 308 308 308 308 308 307 307 306 306 306 305 305 305 305 305 305 305 305 304 304 304 304 303 303 303 303 303 302 302 301 301 301 301 301 300 299 299 299 299 298 298 298 298 297 297 297 297 297 297 297 297 298 298 298 298 299 300 301 301 302 303 304 305 305 305 306 306 306 306 307 306 306 306 305 305 305 304 304 303 303 303
307 308 308 308 308 307 307 308 308 307 307 306 306 306 306 306 306 306 306 305 305 305 305 305 305 304 304 304 303 303 303 302 302 302 302 301 301 301 301 300 300 299 299 299 298 298 298 298 297 297 297 297 297 297 297 297 296 296 297 297 297 298 298 299 300 301 301 302 303 303 304 304 304 304 305 305 304 304 304 303 303 302 302 302 302 302 302
307 308 308 309 309 307 307 307 307 307 306 306 306 306 306 306 306 306 306 306 306 305 305 305 305 304 304 303 303 303 303 302 302 302 301 301 301 301 300 300 300 299 299 299 298 298 298 298 297 297 297 297 296 296 296 296 295 295 296 296 296 297 297 297 298 299 300 300 301 301 302 302 302 303 303 303 303 303 303 302 302 301 301 300 301 300 300
308 308 308 309 308 306 306 306 307 307 306 306 306 306 306 306 306 306 306 306 306 306 306 305 305 305 304 303 303 303 302 302 302 301 301 301 301 301 300 300 300 299 299 299 299 298 298 298 297 297 297 296 296 296 295 295 295 295 295 295 295 295 295 296 296 297 298 298 299 299 300 300 301 301 301 301 301 302 301 301 300 300 300 300 300 299 299
307 307 307 307 306 306 306 306 307 307 306 306 306 306 306 307 307 306 306 306 306 305 305 305 305 304 304 304 303 303 302 302 302 301 301 301 301 301 300 300 300 299 299 299 298 298 297 297 297 296 296 296 296 296 295 295 295 295 295 295 294 294 294 294 295 295 296 296 297 297 298 298 299 299 300 300 300 300 300 300 300 299 299 299 299 299 299
306 306 306 306 306 306 307 307 306 306 306 306 306 307 307 307 306 306 306 306 305 305 305 305 305 304 304 304 303 303 303 302 302 302 301 301 301 300 300 300 300 299 298 298 298 297 297 297 296 296 295 295 295 295 295 295 295 295 295 295 294 294 294 294 294 294 294 294 295 296 296 297 297 297 298 298 298 299 299 299 298 298 298 298 298 298 298
Wind_Speed
9 4 6 9 9 10 12 19 17 5 5 7 9 12 6 5 2 5 9 10 11 10 11 12 11 9 11 12 12 12 14 16 15 15 16 16 17 18 18 19 19 19 19 20 20 18 16 15 7 4 8 11 10 9 10 9 7 7 11 15 18 18 19 21 24 27 30 32 32 32 29 28 31 31 29 27 27 27 27 26 25 25 25 24 24 25 26
8 7 7 8 7 9 9 5 6 3 6 8 9 11 5 4 5 10 11 10 9 5 6 11 12 12 12 12 12 12 12 14 13 13 14 16 17 18 18 18 18 18 19 19 20 20 20 20 16 7 7 9 6 4 6 9 8 6 5 7 12 15 17 18 19 23 28 32 32 32 30 25 24 28 30 28 25 26 26 25 24 25 25 24 24 24 25
6 6 6 8 8 7 6 1 5 1 8 7 5 6 2 4 8 11 10 11 9 3 5 12 15 14 13 11 12 12 11 12 12 12 13 15 16 17 17 18 17 17 18 18 19 20 19 19 19 14 7 9 8 2 2 6 7 6 6 4 8 12 14 16 17 19 23 28 29 29 29 28 21 17 21 25 24 24 25 24 23 24 25 25 25 24 24
6 6 7 9 8 7 9 8 5 5 8 7 6 6 2 2 6 12 11 8 6 5 7 13 15 14 13 11 10 11 11 11 12 12 12 13 15 16 16 17 17 17 18 18 18 19 19 19 18 15 11 3 2 1 3 1 5 5 4 5 7 9 10 12 14 16 19 22 24 22 22 24 21 17 18 19 20 19 21 23 23 23 23 25 26 26 24
8 7 7 5 6 6 8 9 9 9 8 8 9 7 1 6 4 8 10 7 6 8 10 12 11 12 13 12 10 10 10 11 11 11 12 13 14 15 15 16 17 16 17 17 17 18 19 18 17 15 14 10 5 4 6 4 2 4 4 4 6 8 9 10 11 14 16 18 21 20 17 18 21 21 20 21 21 19 19 21 23 25 25 24 26 28 27
8 4 4 0 5 6 2 3 3 6 7 7 8 6 4 4 6 4 9 11 10 10 10 11 10 11 14 14 12 10 8 9 10 10 11 12 13 14 15 15 16 16 16 16 16 17 17 17 16 15 15 14 10 8 8 9 6 4 4 5 6 7 10 12 13 13 14 16 19 22 20 19 19 19 20 23 26 26 25 26 26 27 28 27 27 29 30
7 2 4 3 6 3 3 7 7 5 3 1 2 3 3 5 6 8 11 14 12 9 11 15 15 14 15 13 11 10 8 7 9 9 10 11 12 13 14 14 15 15 15 15 15 15 15 16 15 14 15 14 13 12 12 13 12 9 6 6 6 6 8 11 13 15 16 16 18 20 21 21 20 19 19 21 24 27 29 29 29 30 30 28 27 29 31
6 4 4 4 2 3 6 7 6 4 3 2 2 2 2 3 5 8 9 10 10 11 13 15 14 15 18 17 13 10 8 6 6 9 10 11 11 12 12 13 14 14 13 14 14 14 14 14 14 14 15 15 14 14 15 14 14 13 11 8 6 6 7 9 12 15 17 18 16 16 17 18 18 18 18 20 23 24 26 27 27 29 30 29 28 28 29
5 6 5 3 2 4 5 5 4 3 3 2 0 2 3 3 5 9 8 7 10 12 11 11 11 9 12 15 13 11 10 8 6 7 8 9 10 10 11 11 12 13 12 12 13 12 13 14 14 13 14 14 14 14 14 14 14 14 15 13 10 7 5 6 9 11 14 16 16 15 15 16 16 16 16 19 21 23 24 25 25 26 28 29 30 29 29
4 6 5 4 5 4 3 7 7 6 5 5 4 1 3 4 6 10 10 7 8 9 8 9 8 4 3 6 9 10 9 8 8 8 7 7 8 9 9 10 11 11 11 10 11 12 12 12 13 12 12 12 13 14 14 13 13 14 15 15 14 13 11 6 6 8 10 13 13 14 15 16 15 14 14 17 20 22 24 25 24 24 26 29 31 31 31
5 6 6 5 4 2 2 7 8 6 5 5 1 3 5 4 5 9 11 10 9 6 5 6 7 3 3 4 8 9 6 5 7 7 7 7 7 8 9 9 10 10 10 10 10 11 11 12 11 10 11 11 12 14 14 13 13 14 15 16 16 15 14 10 7 7 8 10 11 12 14 14 14 13 13 15 17 20 23 24 24 23 25 29 31 31 30
6 6 6 3 1 3 4 6 7 6 5 2 3 5 4 5 6 6 4 9 11 7 3 2 3 3 2 2 6 7 6 5 5 6 6 7 7 8 9 10 9 9 8 9 10 10 11 12 11 10 10 10 11 14 15 14 14 14 15 17 16 14 14 12 10 8 7 8 8 9 11 12 13 13 13 14 15 17 20 22 23 22 23 26 28 28 28
7 7 7 2 3 5 6 6 7 6 3 1 4 3 2 5 8 7 4 1 9 10 6 2 2 4 6 6 4 3 3 5 5 5 5 6 7 8 9 10 9 8 8 8 10 10 10 11 10 10 10 9 11 14 14 13 13 14 16 18 16 14 13 12 11 11 9 8 8 8 8 10 12 13 14 15 16 17 18 19 21 23 23 25 27 27 27
6 5 5 3 3 4 6 8 7 3 1 1 2 3 4 6 9 7 5 6 4 9 10 6 2 4 7 6 3 2 4 5 5 5 6 7 7 8 9 9 9 9 8 9 9 9 10 10 10 10 10 9 13 16 14 12 13 15 18 20 18 15 13 12 14 14 12 11 11 11 11 11 10 9 10 13 16 19 20 20 20 21 22 25 27 28 28
5 6 6 3 2 4 6 6 3 2 1 2 5 6 7 9 8 7 6 9 7 4 7 7 3 1 1 4 4 4 4 5 5 6 7 7 8 9 9 10 10 10 9 9 10 10 10 10 10 10 10 11 13 14 13 12 14 16 19 20 19 18 15 14 15 17 16 14 13 13 14 14 12 10 11 11 13 16 19 20 19 18 20 23 26 27 28
4 5 4 2 3 7 6 3 4 7 7 5 5 6 7 5 3 4 2 2 3 2 4 5 4 4 3 3 5 5 4 5 6 6 7 8 9 9 10 11 11 11 11 11 11 11 10 10 10 11 12 13 13 12 12 12 15 17 18 17 16 17 18 18 19 18 17 17 17 17 17 14 13 14 15 13 12 12 13 14 15 16 18 21 24 26 27
4 2 0 2 5 8 7 5 8 10 9 6 4 4 4 3 3 4 4 5 4 4 6 6 5 7 7 5 6 5 4 5 6 7 8 8 10 10 10 11 12 12 12 13 12 12 11 11 11 11 11 12 12 12 13 15 16 16 16 13 12 14 19 23 23 20 19 18 16 14 15 15 12 12 11 11 11 12 12 10 9 10 13 18 22 24 26
4 3 4 5 6 8 7 4 6 7 5 5 5 3 3 3 3 3 1 0 2 2 3 7 8 9 8 5 6 6 6 7 7 7 8 8 9 11 11 13 14 15 14 13 13 13 13 12 12 11 11 11 12 13 15 15 14 13 13 13 14 17 21 23 23 22 23 21 16 12 14 16 14 11 9 8 10 12 12 8 7 8 10 13 17 21 23
4 4 6 8 8 8 7 6 7 7 5 4 4 4 3 2 1 1 1 3 3 4 2 3 5 4 4 5 8 8 8 9 8 7 8 9 10 12 13 14 15 15 15 15 15 15 16 15 14 13 13 12 12 13 14 14 13 15 18 19 20 20 20 21 22 23 24 24 21 18 15 13 11 11 11 12 13 13 12 8 6 8 10 12 14 15 18
5 4 3 5 6 6 6 6 7 8 9 8 7 6 5 4 2 2 0 1 0 1 0 3 3 3 5 8 9 9 9 9 9 9 9 10 11 12 13 14 15 15 15 16 16 17 17 17 16 15 14 14 14 14 15 16 17 18 18 19 21 21 20 20 23 23 22 22 22 18 12 8 8 10 12 13 14 14 14 12 10 9 9 11 12 13 14
6 7 6 6 8 8 8 8 8 6 6 8 9 8 8 7 5 4 2 2 2 2 2 3 3 4 6 7 9 9 9 10 10 10 11 11 11 12 13 14 14 15 15 16 16 17 18 18 17 17 16 16 15 15 16 17 18 19 19 18 19 20 20 19 19 18 17 17 15 12 10 10 11 11 12 13 14 16 16 15 16 15 14 15 16 16 17
4 3 4 3 3 4 3 3 6 6 5 6 7 8 9 8 7 6 6 6 5 4 3 3 4 6 7 7 8 9 10 11 11 11 12 13 13 13 13 14 14 14 15 16 16 17 18 18 18 18 17 16 15 15 16 17 18 18 18 18 18 17 16 15 15 14 14 13 12 13 15 15 15 16 18 19 20 21 22 21 21 20 20 22 23 24 24
6 5 6 6 4 1 1 2 1 3 5 7 9 9 9 9 9 9 9 9 8 7 8 9 9 9 8 7 7 8 10 11 12 13 13 14 14 15 15 15 15 15 15 15 16 16 17 17 17 18 18 18 17 17 17 17 17 18 19 20 20 18 15 14 14 15 16 16 17 18 19 19 19 22 24 24 24 23 23 23 23 22 22 23 23 25 27
7 5 3 4 2 3 4 4 4 5 6 8 10 10 11 11 11 12 11 10 10 10 9 8 7 7 8 8 7 9 11 11 12 13 14 14 15 16 17 16 15 15 15 15 15 16 17 17 18 19 20 20 19 19 18 18 19 20 21 22 22 22 20 18 16 16 17 18 19 19 19 18 19 20 22 24 25 24 21 20 22 24 25 24 23 22 23
9 8 5 4 5 6 7 7 8 8 9 10 11 11 12 12 13 12 11 10 10 9 7 6 5 5 7 8 8 9 11 11 11 12 13 15 15 16 16 16 16 16 16 16 17 17 18 18 19 20 21 21 20 21 21 19 18 19 20 21 22 23 23 22 20 18 18 18 19 19 18 18 19 19 20 21 24 26 26 26 25 25 24 24 24 23 23
11 13 13 13 13 12 12 13 13 12 11 11 12 12 12 11 11 11 12 10 9 9 8 8 7 6 7 7 8 10 11 11 11 11 12 14 14 15 15 16 16 17 17 17 18 18 18 18 19 19 20 20 19 20 21 21 20 19 20 22 23 24 25 23 22 21 20 20 21 22 21 22 21 21 21 21 22 25 28 29 29 27 25 24 25 25 25
11 12 13 14 15 14 13 14 15 14 12 12 14 16 14 12 10 10 11 10 8 8 9 8 7 8 7 7 8 10 10 11 12 12 12 13 14 14 15 16 17 17 18 18 18 17 17 18 18 18 19 19 19 19 19 20 21 21 22 23 23 24 23 23 22 21 21 21 22 23 23 24 23 21 20 21 22 22 23 25 27 29 30 28 25 22 22
10 10 11 13 14 14 14 13 14 13 11 11 14 15 15 14 13 12 12 12 11 9 9 8 8 9 9 8 9 10 10 11 12 12 13 13 14 14 15 16 17 17 18 19 18 16 17 19 20 18 17 18 19 19 18 18 20 21 22 23 24 24 23 22 21 21 20 20 21 22 23 23 22 20 20 20 20 21 23 25 27 29 29 28 25 23 25
9 9 12 13 15 16 18 17 16 14 13 13 14 14 13 15 15 14 14 14 14 11 9 8 9 9 8 8 8 8 10 11 12 12 13 14 14 14 15 16 16 16 17 18 18 16 17 20 21 20 17 16 18 18 18 18 20 21 21 22 24 24 24 23 22 22 21 21 21 22 23 24 24 23 23 23 23 23 25 26 25 25 25 24 25 26 26
11 12 13 14 15 16 16 16 15 13 12 13 14 15 15 14 13 13 14 14 13 12 11 10 8 7 6 6 7 8 10 11 12 13 14 14 14 14 14 14 15 16 16 16 16 17 18 20 20 21 20 18 17 17 17 17 19 20 21 22 24 25 25 25 25 25 25 25 25 23 21 22 24 23 22 22 22 22 22 22 21 22 22 22 22 21 20
15 15 15 16 16 14 12 12 14 13 11 11 10 11 13 13 12 11 13 14 12 11 12 10 6 4 3 4 6 8 10 11 12 13 13 14 14 14 14 13 14 15 15 16 16 18 20 20 20 21 21 20 19 18 18 17 17 17 19 20 23 24 24 25 26 26 26 26 27 27 25 23 22 20 19 19 20 20 20 21 21 21 21 20 18 17 17
16 16 15 16 15 12 10 9 10 10 11 11 10 9 10 12 10 8 10 11 10 9 8 6 4 3 3 3 5 7 9 10 11 12 13 13 14 13 12 12 12 14 15 16 16 17 19 20 21 22 22 20 19 19 19 19 19 19 18 19 20 21 21 22 24 25 25 25 25 27 27 25 23 22 23 24 23 23 24 23 23 21 20 20 19 18 19
14 14 15 14 12 10 10 9 9 9 8 9 10 9 8 9 10 8 7 6 5 3 3 3 3 1 3 3 5 8 10 10 11 12 12 12 12 11 11 11 13 14 14 16 17 18 18 18 20 22 22 21 21 20 19 19 20 21 21 22 23 22 22 22 24 25 26 26 25 26 27 26 25 25 25 24 23 23 22 22 21 21 21 21 20 20 20
12 13 14 13 11 10 10 8 7 8 7 7 9 9 9 11 12 11 9 7 5 4 3 3 2 1 3 4 6 8 9 10 11 11 11 12 12 12 12 13 14 15 15 16 16 16 17 18 20 22 23 23 23 23 21 20 20 21 22 24 25 24 24 24 24 25 26 27 27 28 28 27 27 26 24 22 21 21 21 22 22 22 22 21 20 19 21
12 13 13 11 9 8 8 5 5 9 10 10 10 10 11 12 12 10 7 5 2 1 1 1 0 1 3 5 7 8 8 9 10 10 10 11 11 12 13 13 14 15 15 15 14 13 15 17 19 20 22 23 23 23 21 20 20 21 22 23 24 25 25 24 24 25 26 27 28 28 26 24 24 25 24 22 22 23 24 24 23 21 20 20 20 20 21
13 14 12 8 5 5 4 3 6 9 11 10 10 11 12 11 9 6 4 2 1 1 1 2 2 3 4 5 6 7 8 9 9 9 9 9 10 12 12 12 13 14 14 13 13 13 15 16 18 19 22 23 23 21 20 20 21 22 23 23 24 24 25 26 26 26 26 26 27 28 26 23 23 24 24 24 24 24 24 23 21 21 22 22 22 23 24
12 13 9 4 3 3 2 4 7 9 10 9 9 10 9 8 7 6 5 4 3 3 2 1 1 2 4 5 6 6 7 8 8 9 9 9 10 11 11 11 12 13 13 12 14 15 15 17 19 21 22 22 22 21 20 19 21 22 22 22 22 22 23 25 26 27 26 26 25 25 23 23 23 23 23 23 22 22 21 21 21 24 26 26 24 25 27
10 10 9 5 4 4 4 6 8 8 9 9 9 9 9 8 8 7 6 5 3 2 1 1 1 2 3 4 5 6 7 7 7 8 8 9 9 10 9 9 10 11 12 13 15 16 16 17 20 21 21 20 20 20 20 19 20 21 22 22 21 21 22 23 23 25 26 27 27 25 24 23 22 22 22 22 22 22 22 22 21 22 24 25 24 26 28
10 10 10 8 7 6 7 8 8 8 9 11 12 11 10 9 8 7 6 5 3 2 1 1 1 1 2 4 4 5 6 7 7 7 8 8 9 9 8 7 8 10 11 14 16 16 16 18 19 19 19 19 19 19 19 19 20 22 22 22 22 22 22 22 21 22 23 25 27 28 28 27 25 23 22 21 21 22 22 21 21 22 24 26 27 29 30
13 12 11 10 10 10 9 9 9 9 9 11 13 12 10 9 8 7 6 5 3 2 2 2 2 1 2 3 3 4 5 5 5 6 7 7 7 7 7 7 9 11 13 14 16 17 17 17 18 17 18 20 20 20 20 21 22 23 23 23 23 23 23 22 22 22 23 24 26 27 27 26 25 23 21 19 19 20 19 18 20 24 27 29 30 31 30
14 13 13 14 14 13 12 11 11 10 10 12 14 13 11 9 8 7 6 5 4 3 3 3 3 3 3 3 3 3 4 4 5 6 6 6 6 7 7 8 11 13 13 14 15 16 16 16 16 16 17 20 21 21 22 24 24 23 22 22 21 21 21 21 22 23 23 25 26 26 25 23 23 23 22 21 21 22 22 21 23 25 26 26 27 27 27
15 13 13 14 15 16 14 12 13 13 12 13 13 13 11 9 8 8 7 6 5 5 4 4 4 4 4 4 4 4 4 5 6 7 6 6 7 8 9 11 12 12 13 14 14 14 15 14 14 16 18 21 22 23 23 23 22 20 19 20 20 20 20 20 21 21 22 23 25 25 23 22 22 23 25 26 26 25 24 23 22 22 22 23 25 27 29
16 14 13 15 18 18 16 14 15 16 15 14 13 13 11 9 8 8 7 6 6 5 4 4 4 4 4 5 5 5 4 5 7 8 8 8 8 8 10 13 12 11 13 15 14 13 14 15 16 18 21 22 22 22 21 19 18 17 17 18 18 18 18 18 19 19 20 21 21 22 23 23 23 24 26 28 28 27 26 25 23 24 25 27 30 32 32
16 14 13 15 19 20 18 16 17 18 17 15 14 12 11 9 9 9 8 7 6 5 4 3 3 3 4 4 5 5 5 5 7 8 9 9 7 7 11 13 11 10 14 16 14 12 13 15 17 20 22 21 20 19 17 15 15 15 16 17 18 19 18 18 17 18 19 19 19 20 21 22 22 22 23 24 25 26 26 26 25 26 28 29 30 30 29
15 14 12 12 16 19 18 17 17 17 16 16 14 12 10 10 10 9 7 7 6 5 4 3 3 3 3 4 5 5 4 4 4 6 8 9 7 8 12 13 11 11 15 15 13 11 13 16 19 22 22 20 18 17 15 14 15 17 18 19 20 21 20 19 19 18 18 17 16 17 18 19 20 21 22 24 25 26 26 26 26 26 26 26 26 25 24
12 12 11 11 15 18 19 19 19 17 16 15 14 12 10 11 10 9 8 7 6 5 4 3 2 2 2 3 4 5 5 5 4 5 7 8 8 8 11 12 12 12 14 13 12 13 15 17 21 24 23 21 19 18 17 16 17 17 18 19 20 20 20 20 19 19 18 17 16 16 17 19 20 21 22 23 23 24 24 24 24 23 23 22 21 20 19
6 8 8 11 16 19 20 19 18 17 16 15 14 13 11 11 11 10 9 7 6 5 4 4 3 2 2 2 3 3 4 5 5 4 6 8 7 8 10 11 12 13 12 11 12 15 18 19 21 24 24 22 20 20 20 19 18 18 18 18 18 18 19 18 17 17 17 17 16 17 18 18 19 19 19 19 18 18 18 18 17 16 15 15 14 14 14
3 4 6 11 19 23 22 18 17 17 16 14 13 12 12 11 11 10 9 8 7 6 5 4 3 3 3 2 2 2 3 5 5 5 6 7 7 8 9 10 11 11 11 11 13 16 19 20 21 22 22 21 21 21 21 20 19 19 19 18 17 17 17 17 16 15 15 14 14 15 16 16 17 17 17 16 14 13 12 11 11 12 12 12 13 14 14
3 5 9 14 20 22 21 17 15 15 14 12 11 11 12 11 11 9 9 8 8 7 5 4 4 4 3 2 2 2 2 4 4 5 6 7 7 7 8 8 9 10 10 10 11 14 17 19 21 22 21 19 19 20 20 18 17 17 19 19 18 16 16 16 16 15 14 12 13 13 13 13 14 14 13 13 12 11 11 10 10 10 10 9 9 9 10
7 8 11 14 16 18 18 16 13 12 13 12 11 12 12 12 10 9 8 8 8 7 5 4 5 4 3 2 2 2 2 3 3 4 6 7 7 8 8 8 8 9 10 10 10 11 14 17 19 21 21 19 19 19 19 17 16 17 18 19 20 18 17 15 15 14 13 12 11 11 11 11 11 10 10 10 10 10 11 11 10 10 9 9 8 7 6
12 13 14 13 13 14 14 13 12 12 12 12 11 12 12 11 10 9 8 7 6 5 5 5 5 4 3 2 2 1 1 2 3 5 6 6 7 9 9 8 8 9 10 11 11 12 13 15 16 18 19 19 18 18 18 17 17 16 17 17 18 19 18 17 15 13 12 11 10 9 8 7 7 8 9 9 9 9 10 10 10 10 10 10 10 10 9
14 13 12 10 9 8 8 8 9 11 12 12 12 12 11 9 9 9 8 6 5 5 5 6 6 4 2 1 1 1 1 2 3 4 5 6 6 6 6 7 7 9 10 10 10 12 14 15 16 16 17 17 17 16 17 17 16 15 14 14 15 16 17 17 16 14 11 9 8 7 6 5 5 6 6 6 7 8 8 8 8 9 9 9 10 10 9
Wind_Direction
232 251 286 289 302 320 285 234 209 200 270 266 267 259 269 357 3 137 141 155 147 146 151 137 131 127 113 102 98 102 110 105 91 84 83 79 78 76 72 70 67 64 65 65 64 65 60 56 66 146 136 118 123 154 180 188 199 218 228 232 232 235 238 238 234 228 221 221 238 255 252 234 224 221 218 217 215 216 219 217 215 214 214 217 219 218 219
226 223 273 281 284 322 322 237 163 73 297 268 258 258 276 34 110 136 141 135 115 125 144 124 123 121 109 102 96 90 96 98 88 81 79 75 75 74 69 69 69 65 64 63 63 65 64 65 69 91 163 170 153 134 162 170 164 160 175 215 227 229 234 232 229 230 226 226 242 261 266 257 239 224 220 221 218 217 219 220 219 218 217 217 221 222 222
252 219 249 271 273 298 314 266 125 148 278 280 279 272 306 98 138 144 141 123 107 156 174 124 116 114 109 108 99 86 84 92 89 80 74 72 72 71 67 66 65 63 62 59 59 61 62 64 65 69 111 179 198 199 174 179 171 154 139 168 213 225 236 238 234 235 233 231 239 252 260 265 262 245 232 227 222 222 222 221 220 222 222 221 221 223 224
262 220 219 247 262 277 278 259 207 214 254 265 256 240 247 246 182 156 143 130 134 190 170 129 121 120 117 114 99 82 76 82 83 78 75 72 69 67 65 63 61 59 57 54 54 55 57 61 62 61 64 89 202 43 31 213 207 202 180 181 200 213 230 239 241 244 243 239 239 245 255 256 252 258 263 245 228 225 225 224 224 223 224 224 222 223 226
258 223 200 239 259 253 265 262 232 218 231 248 242 215 166 344 300 171 156 148 160 179 163 140 136 130 119 116 110 94 82 81 80 75 74 73 70 67 64 61 58 57 55 53 52 49 49 53 55 56 57 49 15 2 16 8 279 248 248 234 226 227 233 241 245 246 246 242 239 242 253 250 240 245 252 244 236 233 225 223 226 227 228 229 226 224 224
262 220 127 59 258 232 252 328 258 214 209 235 246 213 141 43 20 98 142 146 157 171 155 133 129 121 110 110 112 107 95 88 85 77 70 71 71 68 65 61 56 55 53 53 53 49 46 49 48 46 54 54 33 11 19 23 4 322 298 284 264 252 247 245 247 248 246 244 241 242 247 249 245 245 239 231 231 231 226 222 221 222 225 230 233 232 228
264 240 122 209 245 223 77 50 44 52 59 23 0 44 87 98 84 98 131 147 155 152 120 107 109 112 110 108 108 109 102 84 79 80 76 71 67 65 65 61 55 52 50 49 50 50 46 47 46 37 41 50 41 26 33 32 17 6 354 322 297 283 268 250 246 249 251 249 245 245 249 252 249 249 245 234 229 228 230 232 229 224 222 223 229 236 236
264 253 210 220 227 114 99 76 55 48 47 61 93 83 50 85 112 119 128 138 145 141 127 120 124 128 120 113 108 108 111 97 73 70 69 68 66 62 62 61 54 48 47 45 45 48 47 45 46 37 31 38 39 33 37 34 20 19 25 14 346 317 293 267 253 251 252 253 251 248 253 258 253 248 244 239 234 232 233 236 237 235 232 227 227 232 236
241 242 223 203 187 169 147 112 69 61 79 65 8 218 190 156 147 138 130 134 147 152 148 139 146 151 130 117 111 109 114 117 103 78 64 63 64 60 59 60 51 41 42 42 39 41 43 42 44 38 26 28 35 34 34 31 20 19 27 31 28 16 346 292 272 267 259 254 250 247 251 257 256 250 244 239 235 235 238 240 240 240 241 240 237 236 236
240 249 238 204 206 220 166 122 99 76 70 53 15 307 178 166 157 149 149 158 161 168 174 153 143 169 176 128 112 102 100 100 95 84 65 56 56 54 54 54 44 33 33 35 32 33 36 36 39 38 27 21 26 31 31 29 21 12 14 23 27 25 23 358 311 302 283 263 250 243 246 254 257 255 248 241 234 229 233 240 242 241 242 243 243 241 240
247 254 250 223 209 228 104 109 106 93 82 73 40 231 194 170 154 153 164 175 170 173 192 161 143 180 231 157 120 107 93 77 71 65 55 48 44 42 44 42 34 27 26 27 25 24 26 27 28 32 27 13 10 20 23 22 20 10 3 10 16 18 23 19 354 333 309 285 265 248 246 249 253 255 251 247 243 236 232 235 239 240 240 239 241 243 245
241 239 244 243 117 111 125 116 105 99 87 81 215 210 172 139 132 128 159 185 173 149 73 84 161 216 254 127 121 117 97 68 53 42 40 40 34 31 30 27 24 23 23 21 18 13 15 20 18 17 21 11 0 8 12 8 8 4 357 0 4 5 11 14 4 350 330 305 283 264 258 255 252 255 257 253 250 247 242 239 237 238 239 239 241 244 248
229 230 239 234 88 106 133 124 99 88 79 235 217 184 90 92 109 93 37 179 163 146 112 70 196 149 117 105 118 132 80 49 31 14 16 23 23 19 16 18 21 22 17 12 9 7 8 11 6 4 10 360 342 351 0 358 354 351 348 351 355 353 355 357 353 349 341 319 294 277 273 266 256 255 259 260 258 256 254 252 247 243 242 242 243 244 244
241 241 245 220 128 123 130 117 95 62 299 230 135 106 70 72 97 102 44 25 99 148 151 156 171 120 107 92 65 30 18 9 359 357 0 5 8 6 8 13 15 13 12 7 2 0 357 355 354 357 359 344 333 341 350 347 341 337 338 343 345 345 347 350 348 345 341 328 305 286 280 272 261 260 264 263 263 261 258 259 260 258 254 251 250 247 243
249 240 240 241 151 132 133 128 101 28 3 129 124 113 82 64 81 104 67 37 41 109 159 175 204 262 30 29 10 356 346 335 336 350 359 360 358 356 358 2 1 1 2 357 352 349 346 343 344 343 337 328 331 339 341 336 330 329 335 340 339 336 338 344 345 342 340 340 332 317 303 283 268 283 298 280 263 261 260 259 260 264 264 261 259 256 249
258 246 239 251 152 138 131 120 90 79 81 101 123 117 96 73 93 124 96 39 69 115 204 228 253 256 261 342 330 300 300 317 327 342 351 353 352 351 351 352 352 351 349 344 343 341 340 340 338 331 324 323 329 336 333 325 322 326 334 340 337 329 325 327 335 341 341 342 343 342 335 312 282 288 305 295 268 256 259 259 258 263 268 266 264 264 262
295 300 142 141 157 148 126 89 91 98 102 110 107 107 121 149 180 175 196 207 172 168 219 237 264 262 255 284 292 271 276 304 318 333 342 343 344 343 345 346 340 336 336 338 338 335 332 334 332 329 328 326 323 319 313 313 322 329 334 334 323 312 312 318 326 331 331 336 342 340 337 330 309 295 303 308 290 267 258 260 267 275 278 272 267 266 268
276 254 194 171 166 161 154 137 117 112 119 134 138 163 183 190 221 240 270 352 51 35 228 211 222 241 247 267 279 274 282 292 303 322 329 334 339 339 340 340 334 329 329 332 331 327 325 327 326 325 324 322 318 314 311 314 322 322 311 301 297 300 308 314 318 318 319 326 331 323 316 321 322 311 299 309 309 289 273 273 292 307 303 288 278 272 270
244 221 187 180 187 186 182 179 159 143 149 155 155 182 183 153 182 236 0 14 21 21 28 188 210 237 253 272 277 272 273 282 297 316 322 330 336 335 336 337 334 332 331 328 326 324 321 322 324 321 319 318 318 316 313 311 308 302 297 298 300 304 308 309 308 311 315 317 319 321 320 319 319 312 299 295 295 291 288 292 312 322 314 302 296 290 281
239 247 205 182 199 206 205 203 180 163 169 175 174 182 179 151 135 159 125 343 300 338 215 184 201 249 258 263 271 272 277 290 302 311 317 324 328 328 331 332 331 331 329 325 324 323 321 322 323 321 319 316 315 314 312 310 308 306 306 305 304 305 307 307 307 311 314 316 320 325 324 309 300 299 297 294 288 285 286 286 286 290 292 290 294 297 291
242 256 253 234 219 213 216 221 219 211 197 188 184 184 180 175 174 179 183 189 194 213 209 188 201 243 258 270 280 283 286 292 297 304 311 316 320 323 325 326 327 327 325 322 321 319 319 319 320 319 318 317 317 316 314 313 312 312 312 309 307 307 308 308 310 312 312 314 317 312 295 293 298 295 287 281 278 277 278 276 273 272 270 270 275 279 279
257 319 339 320 262 227 228 233 229 237 247 230 210 196 190 193 193 188 192 201 199 191 191 202 218 229 237 250 265 272 279 287 295 303 308 311 316 320 320 321 323 323 320 319 318 317 318 319 319 319 318 316 315 315 313 313 313 313 311 309 308 309 309 306 304 304 302 299 291 284 284 289 290 286 281 281 282 284 285 282 280 278 272 268 270 274 274
276 330 8 18 13 347 3 11 293 244 237 232 227 218 210 208 203 199 204 209 208 205 208 212 216 221 230 247 268 276 280 288 295 300 304 309 313 315 318 319 320 319 319 319 318 317 318 318 317 316 315 314 313 312 311 310 309 307 304 301 299 300 301 300 296 295 295 293 287 284 286 288 288 288 289 290 292 294 293 291 290 287 282 277 275 275 274
284 303 18 46 7 291 283 292 289 278 260 245 240 234 226 220 216 213 209 206 213 229 239 230 222 235 251 265 281 284 282 287 294 297 301 306 309 310 314 316 316 317 318 318 316 316 315 314 313 312 310 310 309 309 308 308 307 307 306 304 300 296 292 289 288 287 288 291 293 293 291 289 288 290 293 294 295 295 294 291 291 290 289 289 288 285 282
286 296 314 314 284 276 281 280 274 269 263 255 250 243 230 222 219 212 205 202 209 225 248 252 245 261 271 268 270 276 279 283 291 295 297 301 305 308 311 312 313 315 315 314 314 314 313 312 311 309 307 307 307 307 307 306 304 304 304 304 303 299 295 289 285 282 279 278 281 285 287 287 287 288 291 294 295 294 292 290 290 291 291 293 295 295 294
280 287 291 290 282 275 270 265 261 257 253 251 257 253 237 225 221 210 203 206 206 202 210 227 244 270 288 282 273 274 276 280 287 293 296 299 302 305 306 308 309 310 310 311 312 311 310 310 309 306 306 306 305 305 304 303 301 299 298 298 298 298 298 293 286 282 280 276 275 275 278 282 286 288 288 287 288 292 294 294 293 291 291 294 298 300 299
281 287 287 283 279 274 267 262 260 258 252 249 253 251 238 225 219 206 197 199 198 192 195 209 233 254 268 274 273 274 277 280 286 290 293 295 297 300 302 304 305 305 308 309 308 309 310 310 307 306 306 305 304 301 299 299 298 296 296 296 296 295 297 296 291 287 284 281 278 277 279 282 284 286 285 284 285 287 288 290 291 291 293 298 301 300 296
280 286 283 278 278 279 279 280 278 272 261 246 241 243 238 225 211 197 193 195 192 186 189 207 233 248 254 259 266 273 278 281 285 289 290 292 294 295 298 300 301 303 306 305 304 307 310 310 308 306 305 306 305 302 297 294 293 293 293 296 297 295 295 294 293 289 286 282 279 276 277 279 282 283 282 282 284 285 282 283 288 292 295 297 298 296 296
284 285 280 276 277 279 277 276 276 274 268 252 234 227 229 224 210 197 198 206 205 200 203 220 236 240 239 245 258 272 279 282 286 290 290 292 294 294 295 298 299 299 301 300 300 302 306 309 308 306 304 306 307 304 300 296 293 291 291 292 294 294 294 293 291 286 280 277 275 274 274 274 274 276 276 277 281 286 287 288 291 293 293 295 297 298 301
296 295 289 280 277 279 276 267 260 259 262 257 241 227 227 231 222 203 197 201 205 206 210 217 222 220 221 240 262 277 282 284 288 290 291 292 294 293 295 297 297 296 298 298 299 301 304 307 310 308 304 301 298 297 298 298 295 292 289 287 288 287 286 287 289 286 279 272 267 265 269 272 271 271 274 276 279 283 287 290 291 291 291 295 298 299 299
300 294 291 285 278 276 273 264 253 244 239 242 238 221 215 224 226 207 192 191 197 207 214 216 215 209 217 249 268 278 283 285 289 291 292 293 294 294 294 295 295 296 298 297 298 302 304 304 305 306 305 302 297 291 289 290 290 289 288 288 289 289 286 285 288 289 286 279 269 263 264 269 268 266 269 274 277 278 281 284 287 288 289 290 292 292 290
301 291 287 284 276 267 262 259 249 234 224 224 224 209 200 208 210 195 190 198 206 213 219 217 207 217 247 272 280 282 286 289 290 291 291 292 292 292 292 292 292 293 296 298 300 302 302 301 301 300 302 305 306 301 295 290 287 284 284 285 286 287 287 289 289 288 287 284 277 269 266 267 267 268 270 273 274 275 277 278 280 281 282 284 287 289 288
309 303 298 295 287 277 271 259 237 224 222 221 216 205 193 192 187 174 174 186 181 166 164 150 136 207 258 280 289 288 289 290 290 290 290 292 294 294 292 292 292 291 294 300 303 301 299 300 301 298 298 301 305 305 304 301 295 289 286 285 286 287 288 288 287 284 281 277 274 271 267 263 263 265 267 268 269 271 273 273 273 274 277 281 284 286 286
313 306 299 298 294 282 273 258 218 202 198 188 180 173 167 167 166 160 157 152 130 116 136 135 88 0 291 286 286 285 287 289 289 291 295 298 301 300 295 293 295 295 293 296 300 300 298 298 298 297 298 301 305 307 308 306 302 297 292 288 287 290 292 291 289 287 282 276 273 272 268 261 258 258 261 265 268 269 269 270 270 272 275 279 281 284 287
319 309 301 302 306 294 280 258 204 183 173 163 163 169 173 174 169 167 174 183 172 120 212 210 295 313 283 282 280 279 284 290 291 293 296 297 298 299 297 297 300 299 296 295 297 296 295 295 297 298 300 303 307 310 309 306 303 301 299 294 288 287 289 291 291 290 286 280 275 272 267 261 258 258 259 263 265 266 266 267 267 268 272 277 281 283 283
329 322 310 300 304 309 295 232 195 180 168 164 172 179 182 179 170 161 167 177 153 131 219 226 232 243 263 282 284 282 287 292 292 293 296 296 295 296 299 303 304 301 299 299 297 291 293 300 302 301 302 305 308 309 309 307 305 303 303 301 298 293 292 291 289 288 287 285 279 273 267 261 259 261 265 267 268 269 269 269 269 270 274 277 280 279 276
326 324 314 279 251 281 256 180 174 169 161 162 172 177 174 163 148 137 132 130 138 158 182 203 246 261 275 288 290 287 290 293 295 295 295 295 298 299 302 307 308 306 306 309 304 300 304 308 305 301 302 306 309 309 308 307 307 307 306 304 302 299 297 294 291 287 285 284 282 278 274 270 265 264 267 270 271 270 271 271 271 273 273 272 271 272 271
314 313 296 259 225 228 208 180 173 172 169 164 160 159 156 150 144 144 144 139 137 150 172 215 293 291 290 293 295 293 292 294 298 298 295 297 303 305 304 307 310 313 317 318 314 311 311 309 306 306 308 308 307 308 310 308 307 308 308 306 303 300 297 296 294 289 283 280 279 278 281 282 278 269 265 267 269 270 271 271 271 271 270 267 266 268 271
292 292 280 254 222 213 210 199 195 196 187 172 160 153 150 148 148 150 148 141 139 159 180 185 333 330 311 306 308 305 299 297 300 302 304 307 307 305 306 309 310 311 315 317 316 315 315 312 310 311 310 305 302 305 309 311 310 309 308 307 304 300 297 295 294 290 286 281 276 274 276 282 284 280 273 271 272 274 273 271 269 269 269 269 270 272 275
279 274 267 249 222 207 202 199 200 201 187 169 158 152 150 150 149 149 146 142 139 139 130 107 69 19 336 326 325 318 313 313 314 313 315 317 314 311 316 315 307 305 309 312 313 315 318 318 317 314 308 303 302 304 307 309 308 306 307 308 304 300 297 295 292 290 287 281 275 274 275 278 281 283 281 278 275 273 270 268 269 270 271 271 271 272 272
277 267 263 253 234 212 195 187 185 180 171 165 160 154 150 150 149 148 149 148 136 121 112 96 71 46 24 7 354 342 336 338 338 333 332 333 332 334 334 323 312 311 315 317 318 321 323 322 320 318 313 309 309 310 309 308 307 306 307 307 303 299 297 295 292 292 289 283 278 277 279 279 278 278 278 277 275 271 268 268 269 269 267 266 267 268 270
271 263 258 248 227 207 193 185 175 164 158 161 159 150 144 146 150 150 150 147 136 123 110 89 68 51 39 27 15 8 4 359 357 356 355 352 348 343 333 324 318 318 322 325 326 328 328 326 326 324 320 316 315 315 313 312 312 311 308 305 302 299 298 296 293 292 290 286 280 276 275 276 276 276 275 276 277 275 272 270 268 264 261 263 268 273 277
266 258 252 238 219 202 192 185 176 163 155 155 154 146 142 147 151 150 148 143 135 127 115 93 67 48 42 38 29 23 22 12 8 8 6 3 0 346 331 328 327 326 329 335 338 336 333 333 333 330 327 324 323 322 322 321 319 315 310 308 307 304 302 301 300 296 292 288 283 277 273 272 272 272 272 272 272 270 268 268 268 266 267 271 275 278 280
265 256 249 237 219 204 193 185 175 164 154 149 146 141 141 148 151 149 149 145 137 130 122 104 73 52 49 43 31 27 26 18 13 11 6 3 1 343 332 336 341 338 338 344 349 345 340 340 338 335 335 334 333 332 331 327 323 320 317 316 316 314 310 307 304 299 295 290 285 278 272 268 265 265 266 268 267 266 265 266 267 267 269 271 274 276 278
266 252 245 238 224 207 190 176 168 161 152 145 142 140 144 151 151 147 147 145 138 133 131 115 87 68 59 44 33 30 27 19 16 14 6 2 355 336 330 337 346 348 347 353 356 350 346 346 345 344 345 345 344 342 336 327 321 320 317 316 317 318 315 309 303 297 293 288 281 275 270 267 265 266 269 271 272 270 268 267 267 268 270 272 273 274 275
258 239 235 239 228 207 183 168 164 159 149 142 142 145 151 154 152 148 147 147 144 139 136 127 110 94 73 48 38 37 33 29 31 23 8 3 357 339 331 337 346 349 350 356 359 353 349 350 350 351 352 354 354 354 350 340 331 325 321 320 320 318 314 310 305 300 294 289 285 282 280 278 277 277 275 272 271 270 269 269 270 270 271 271 271 271 272
237 225 229 226 209 188 170 160 158 156 150 146 149 155 159 159 154 150 151 154 154 151 148 142 130 115 90 59 43 34 23 19 18 12 5 4 1 346 337 339 346 350 352 358 2 360 355 353 353 353 355 358 1 4 3 359 351 343 335 330 324 318 314 312 308 302 297 292 287 284 282 281 279 276 271 267 266 267 270 271 271 268 263 261 261 263 266
200 206 203 185 172 165 159 156 156 157 157 155 154 158 163 164 161 160 162 164 164 163 164 162 152 133 106 73 58 41 19 15 13 4 357 358 1 356 350 347 349 352 356 0 5 6 3 0 358 357 357 358 1 4 4 3 1 357 349 342 332 322 317 314 309 304 301 296 289 284 281 278 275 271 267 264 263 263 262 261 258 255 255 258 262 266 268
156 174 170 160 156 157 158 158 158 161 161 158 157 162 169 170 170 171 174 175 173 173 176 174 166 155 132 98 92 73 30 26 26 13 1 356 358 0 358 354 353 357 0 1 3 5 3 1 0 1 1 0 1 1 0 1 3 1 358 354 347 337 326 318 312 307 303 297 291 286 282 277 273 269 264 260 255 249 243 240 241 246 252 257 263 268 273
116 139 154 160 161 161 159 158 159 163 163 162 166 172 173 171 172 178 183 185 183 180 178 174 166 158 141 121 115 93 26 18 23 15 9 5 359 354 355 358 0 2 3 0 358 359 360 359 359 2 4 4 3 2 2 2 3 3 2 2 1 356 347 335 323 312 304 300 296 291 283 276 268 259 250 245 242 237 234 234 237 241 242 237 227 221 221
112 123 132 142 151 157 160 161 164 166 165 167 173 177 176 175 176 178 182 185 181 170 162 163 161 158 160 160 145 99 19 14 12 7 8 9 2 353 355 3 7 3 1 359 359 2 3 3 2 4 6 6 6 4 3 3 4 3 3 6 7 7 5 360 349 333 317 307 300 292 282 270 256 243 236 232 229 229 231 234 234 234 230 225 220 215 211
97 105 110 119 133 150 162 165 164 167 173 177 177 176 178 181 177 168 164 167 165 154 154 158 155 148 155 170 149 111 6 342 348 353 0 8 7 358 354 358 1 2 3 5 7 9 10 10 10 11 12 11 10 7 5 4 4 3 3 6 10 13 14 14 11 4 352 335 320 307 296 281 263 250 242 233 227 225 224 222 220 218 218 218 218 217 216